Ithaca, NY

10:45 AM EST on December 13, 2017 (GMT -0500)
Tompkins County

Weather History for KITH - February, 2012

Change the Weather History Date:

Friday, February 10, 2012

  Actual Average Record
Temperature  
Mean Temperature 28 °F -  
Max Temperature 34 °F 29 °F 55 °F (1998)
Min Temperature 21 °F 8 °F -15 °F (1983)
Degree Days  
Heating Degree Days 38    
Moisture  
Dew Point 19 °F    
Average Humidity 71    
Maximum Humidity 93    
Minimum Humidity 46    
Precipitation  
Precipitation 0.00 in - - ()
Sea Level Pressure  
Sea Level Pressure 30.01 in    
Wind  
Wind Speed 4 mph (SW)    
Max Wind Speed 10 mph    
Max Gust Speed -    
Visibility 8 miles    
Events Snow    
Averages and records for this station are not official NWS values.
T = Trace of Precipitation, MM = Missing Value Source: NWS Daily Summary

Daily Weather History Graph

Daily Weather History Graph

Search for Another Location

Airport or City:

Trip Planner

Search our weather history database for the weather conditions in past years. The results will help you decide how hot, cold, wet, or windy it might be!

Date:

Astronomy

Feb. 10, 2012 Rise Set
Actual Time 7:09 AM EST 5:30 PM EST
Civil Twilight 6:40 AM EST 6:00 PM EST
Nautical Twilight 6:07 AM EST 6:33 PM EST
Astronomical Twilight 5:34 AM EST 7:06 PM EST
Moon 9:12 PM EST (2/10) 8:11 AM EST (2/10)
Length of Visible Light 11h 19m
Length of Day
10h 20m
Waning Gibbous, 90% of the Moon is Illuminated
Feb 10
Waning Gibbous
Feb 14
Last Quarter
Feb 21
New
Feb 29
First Quarter
Mar 8
Full

Hourly Weather History & Observations

Time (EST) Temp. Windchill Dew Point Humidity Pressure Visibility Wind Dir Wind Speed Gust Speed Precip Events Conditions
12:56 AM 25.2 °F - 16.2 °F 69% 30.13 in 10.0 mi Calm Calm - N/A   Clear
1:56 AM 25.2 °F 19.5 °F 16.2 °F 69% 30.12 in 10.0 mi SSW 4.6 mph - N/A   Clear
2:56 AM 24.1 °F 17.0 °F 16.2 °F 72% 30.11 in 10.0 mi South 5.8 mph - N/A   Clear
3:56 AM 23.0 °F 17.0 °F 15.1 °F 72% 30.10 in 10.0 mi SSW 4.6 mph - N/A   Clear
4:56 AM 23.0 °F 14.7 °F 16.2 °F 75% 30.10 in 10.0 mi SSW 6.9 mph - N/A   Clear
5:56 AM 22.1 °F 15.9 °F 16.2 °F 78% 30.11 in 10.0 mi SSW 4.6 mph - N/A   Clear
6:29 AM 21.2 °F 11.7 °F 15.8 °F 80% 30.06 in 10.0 mi SW 8.1 mph - N/A   Clear
6:56 AM 23.0 °F 13.9 °F 17.1 °F 78% 30.12 in 10.0 mi SW 8.1 mph - N/A   Scattered Clouds
7:28 AM 23.0 °F 17.0 °F 17.6 °F 80% 30.07 in 10.0 mi SSW 4.6 mph - N/A   Mostly Cloudy
7:56 AM 24.1 °F 16.0 °F 17.1 °F 75% 30.12 in 10.0 mi SW 6.9 mph - N/A   Overcast
8:56 AM 26.1 °F 20.5 °F 18.1 °F 72% 30.12 in 10.0 mi WSW 4.6 mph - N/A   Overcast
9:56 AM 27.1 °F - 16.2 °F 63% 30.10 in 10.0 mi Calm Calm - N/A   Mostly Cloudy
11:30 AM 32.0 °F 27.5 °F 15.8 °F 51% 30.02 in 10.0 mi SSE 4.6 mph - N/A   Partly Cloudy
11:56 AM 32.0 °F 25.6 °F 16.2 °F 52% 30.05 in 10.0 mi SSW 6.9 mph - N/A   Scattered Clouds
12:56 PM 34.9 °F 32.0 °F 16.2 °F 46% 30.02 in 10.0 mi West 3.5 mph - N/A   Scattered Clouds
1:56 PM 34.9 °F 29.9 °F 16.2 °F 46% 29.99 in 10.0 mi SW 5.8 mph - N/A   Scattered Clouds
2:56 PM 34.9 °F 30.8 °F 16.2 °F 46% 29.97 in 10.0 mi SSW 4.6 mph - N/A   Scattered Clouds
3:56 PM 34.0 °F 26.0 °F 16.2 °F 48% 29.97 in 10.0 mi SSW 10.4 mph - N/A   Scattered Clouds
4:56 PM 32.9 °F 24.7 °F 17.1 °F 52% 29.97 in 10.0 mi SW 10.4 mph - N/A   Overcast
5:56 PM 32.0 °F 25.6 °F 17.1 °F 54% 29.96 in 10.0 mi SW 6.9 mph - N/A   Overcast
6:56 PM 32.0 °F 26.4 °F 18.1 °F 57% 29.96 in 10.0 mi SW 5.8 mph - N/A   Overcast
7:56 PM 30.0 °F 21.7 °F 23.0 °F 75% 29.97 in 5.0 mi SW 9.2 mph - 0.00 in   Overcast
8:56 PM 28.0 °F - 25.2 °F 89% 29.95 in 5.0 mi Calm Calm - 0.00 in   Overcast
9:56 PM 28.0 °F 24.2 °F 25.2 °F 89% 29.93 in 10.0 mi SW 3.5 mph - 0.00 in   Overcast
10:13 PM 28.4 °F - 24.8 °F 86% 29.88 in 10.0 mi Calm Calm - N/A   Overcast
10:56 PM 28.0 °F 24.2 °F 26.1 °F 92% 29.91 in 4.0 mi SSW 3.5 mph - 0.00 in Snow Light Snow
11:24 PM 28.4 °F 24.6 °F 26.6 °F 93% 29.87 in 2.5 mi West 3.5 mph - 0.00 in Snow Light Snow
11:36 PM 28.4 °F - 26.6 °F 93% 29.87 in 2.0 mi Calm Calm - 0.00 in Snow Light Snow
11:43 PM 28.4 °F - 26.6 °F 93% 29.87 in 1.8 mi Calm Calm - 0.00 in Snow Light Snow
11:56 PM 28.0 °F 22.8 °F 26.1 °F 92% 29.91 in 2.5 mi WNW 4.6 mph - 0.00 in Snow Light Snow